Regional Weather Roundup
Issued by NWS

Home | Current Version | Previous Version | Text Only | Print | Product List | Glossary Off
Versions: 1 2 3 4 5 6 7 8 9 10 11 12 13 14 15 16 17 18 19 20 21 22 23 24 25 26 27 28 29 30 31 32 33 34 35 36 37 38 39 40 41 42 43 44 45 46 47 48 49 50

362
ASUS43 KDTX 230710
RWRMI
MICHIGAN HOURLY REGIONAL WEATHER ROUNDUP
NATIONAL WEATHER SERVICE DETROIT/PONTIAC MI
300 AM EDT SUN APR 23 2017

NOTE: "FAIR" INDICATES FEW OR NO CLOUDS BELOW 12,000 FEET WITH NO
SIGNIFICANT WEATHER AND/OR OBSTRUCTION TO VISIBILITY.

MIZ047>049-052>055-059>063-066>070-074>076-081>083-230800-
SOUTHEAST LOWER MICHIGAN

CITY           SKY/WX    TMP DP  RH WIND       PRES   REMARKS
ADRIAN         CLEAR     38  34  85 CALM      30.13F
ALMA           CLEAR     39  35  87 CALM      30.11F
ANN ARBOR      CLEAR     36  35  96 CALM      30.12F
BAD AXE        CLEAR     38  27  62 S3        30.11F
CARO           CLEAR     34  33  94 CALM      30.11F
DETROIT CITY   CLEAR     39  29  67 CALM      30.13F
DETROIT        CLEAR     42  35  76 CALM      30.13F
FLINT          CLEAR     37  34  89 CALM      30.12F
GROSSE ILE     CLEAR     39  33  77 CALM      30.11F
HILLSDALE      CLEAR     36  34  93 CALM      30.11F
HOWELL         CLEAR     38  33  82 CALM      30.11F

CITY           SKY/WX    TMP DP  RH WIND       PRES   REMARKS
JACKSON        CLEAR     40  34  79 CALM      30.12F
LAMBERTVILLE   CLEAR     36  35  95 CALM      30.13F
LANSING        CLEAR     40  31  70 CALM      30.12F
LAPEER         FAIR      35  35  99 CALM      30.11F
MASON          CLEAR     38  36  92 S3        30.12F
MONROE         CLEAR     37  35  94 CALM      30.12F
MT. CLEMENS    CLEAR     34  33  96 W3        30.11F
PONTIAC        CLEAR     38  32  79 CALM      30.11F
PORT HOPE        N/A     42  23  46 SW8       30.09F
PORT HURON     FOG       30  30 100 CALM      30.12F VSB 3/4
TRI CITIES     CLEAR     45  32  60 SW8       30.10F
MIDLAND        FAIR      38  36  92 CALM      30.09F
TROY           CLEAR     41  32  71 CALM      30.14F
SAGINAW HB     CLEAR     41  32  70 S6        30.10F
$$
MIZ043>046-050>051-056>058-064>065-071>073-077>080-230800-
SOUTHWEST LOWER MICHIGAN

CITY           SKY/WX    TMP DP  RH WIND       PRES   REMARKS
BATTLE CREEK   CLEAR     41  34  76 CALM      30.12F
BENTON HARBOR  CLEAR     35  29  78 CALM      30.12F
BIG RAPIDS     CLEAR     36  30  79 CALM      30.11S
COLDWATER      CLEAR     38  33  82 CALM      30.13S
FREMONT        FAIR      35  26  68 CALM      30.12S
HOLLAND        CLEAR     39  33  79 CALM      30.13F
GRAND RAPIDS   CLEAR     40  35  83 SE3       30.11F
IONIA          FAIR      41  34  75 W3        30.10F
KALAMAZOO      CLEAR     41  29  62 CALM      30.12F
LUDINGTON      CLEAR     33  31  94 CALM      30.10F
MARSHALL       CLEAR     36  33  88 CALM      30.12F
MOUNT PLEASANT CLEAR     43  32  66 CALM      30.09F
MUSKEGON       CLEAR     36  30  79 SE5       30.11F WCI  32
SOUTH HAVEN    CLEAR     34  30  86 CALM      30.12F
$$
MIZ016>042-230800-
NORTHERN LOWER MICHIGAN

CITY           SKY/WX    TMP DP  RH WIND       PRES   REMARKS
ALPENA         CLEAR     36  30  79 S3        30.07F
BEAVER ISLAND  CLEAR     45  31  59 SW13G20   30.02S
BELLAIRE       CLEAR     32  30  92 CALM      30.07F
CADILLAC       CLEAR     31  28  86 CALM      30.08F
CHARLEVOIX     CLEAR     48  27  45 SW10      30.05F
FRANKFORT      CLEAR     47  24  39 SW3       30.08F
GAYLORD        CLEAR     44  22  41 SW8       30.05F
GRAYLING       CLEAR     28  26  93 CALM      30.08F
HARBOR SPRINGS CLEAR     37  28  69 CALM      30.03F
HOUGHTON LAKE  CLEAR     36  32  85 CALM      30.09F
MANISTEE       CLEAR     30  28  92 E6        30.10F WCI  24
OSCODA         CLEAR     33  26  75 SW6       30.08F WCI  28
PELLSTON       CLEAR     49  25  39 VRB6      30.02F
ROGERS CITY    CLEAR     46  26  45 SW8       30.05F
TRAVERSE CITY  CLEAR     47  22  37 SW8       30.05F
$$
MIZ007>008-015-230800-
EASTERN UPPER MICHIGAN

CITY           SKY/WX    TMP DP  RH WIND       PRES   REMARKS
KINROSS        CLEAR     42  26  53 SW5       30.00F
MACKINAC ISLAN CLEAR     45  25  45 SW6       30.01S
NEWBERRY       MOCLDY    38  32  78 SW5       29.99S WCI  35
S. S. MARIE    CLOUDY    41  28  60 CALM      30.00S
MUNISING         N/A     43  37  79 NW3       30.02R
$$
MIZ004>006-011>014-085-230800-
CENTRAL UPPER MICHIGAN

CITY           SKY/WX    TMP DP  RH WIND       PRES   REMARKS
MANISTIQUE     CLEAR     37  36  96 W5        30.00F WCI  33
ESCANABA       CLEAR     41  33  73 CALM      30.02F
MENOMINEE      CLEAR     50  33  52 W7        30.05F
SAWYER-GWINN   CLOUDY    40  36  83 N5        30.02F
$$
MIZ001>003-009>011-084-230800-
WESTERN UPPER MICHIGAN

CITY           SKY/WX    TMP DP  RH WIND       PRES   REMARKS
IRON MOUNTAIN  CLOUDY    47  29  49 NW6       30.01F
HOUGHTON       LGT RAIN  40  36  86 N13       30.07R WCI  32
COPPER HARBOR    N/A     36  33  89 NE8       30.08R WCI  30
IRONWOOD       CLOUDY    44  38  79 N6        30.06
$$

ABBREVIATIONS USED IN REMARKS
   TC - TEMPERATURE IN CELSIUS
  WCI - WIND CHILL INDEX
   HX - HEAT INDEX
  VSB - VISIBILITY





USA.gov is the U.S. government's official web portal to all federal, state and local government web resources and services.